Roanoke, VA

6:10 AM EST on November 15, 2019 (GMT -0500)
Roanoke Regional-Woodrum

Weather History for KROA - September, 2019

Change the Weather History Date:

Saturday, September 28, 2019

  Actual Average Record
Temperature  
Mean Temperature 80 °F 63 °F  
Max Temperature 90 °F 74 °F 93 °F (1936)
Min Temperature 70 °F 53 °F 33 °F (1947)
Degree Days  
Heating Degree Days 0 4  
Month to date heating degree days 1 38  
Since 1 July heating degree days 1 39  
Cooling Degree Days 15 2  
Month to date cooling degree days 293 135  
Year to date cooling degree days 1656 1182  
Growing Degree Days 30 (Base 50)    
Moisture  
Dew Point 68 °F    
Average Humidity 75    
Maximum Humidity 93    
Minimum Humidity 57    
Precipitation  
Precipitation 0.51 in 0.12 in 4.17 in (2004)
Month to date precipitation 1.31 3.65  
Year to date precipitation 32.01 31.78  
Snow  
Snow 0.00 in - - ()
Month to date snowfall 0.0  
Since 1 July snowfall T  
Since 1 September snowfall 0.0  
Snow Depth 0.00 in    
Sea Level Pressure  
Sea Level Pressure 30.13 in    
Wind  
Wind Speed 3 mph (ESE)    
Max Wind Speed 28 mph    
Max Gust Speed 36 mph    
Visibility 10 miles    
Events Rain , Thunderstorm    
T = Trace of Precipitation, MM = Missing Value Source: NWS Daily Summary

Daily Weather History Graph

Daily Weather History Graph

Search for Another Location

Airport or City:

Astronomy

Sep. 28, 2019 Rise Set
Actual Time 7:12 AM EDT 7:08 PM EDT
Civil Twilight 6:46 AM EDT 7:33 PM EDT
Nautical Twilight 6:16 AM EDT 8:04 PM EDT
Astronomical Twilight 5:45 AM EDT 8:34 PM EDT
Moon 6:48 AM EDT (9/28) 7:32 PM EDT (9/28)
Length of Visible Light 12h 47m
Length of Day
11h 55m
Waning Crescent, 0% of the Moon is Illuminated
Sep 28
Waning Crescent
Sep 28
New
Oct 5
First Quarter
Oct 13
Full
Oct 21
Last Quarter

Hourly Weather History & Observations

Time (EDT) Temp. Heat Index Dew Point Humidity Pressure Visibility Wind Dir Wind Speed Gust Speed Precip Events Conditions
12:26 AM 73.4 °F - 62.6 °F 69% 30.12 in 10.0 mi SE 4.6 mph - N/A   Overcast
12:54 AM 73.0 °F - 63.0 °F 71% 30.09 in 10.0 mi ESE 6.9 mph - N/A   Overcast
2:42 AM 72.0 °F - 66.0 °F 81% 30.11 in 10.0 mi ESE 4.6 mph - N/A   Scattered Clouds
2:54 AM 72.0 °F - 66.0 °F 81% 30.06 in 10.0 mi East 3.5 mph - N/A   Overcast
3:54 AM 72.0 °F - 66.9 °F 84% 30.09 in 10.0 mi Calm Calm - N/A   Mostly Cloudy
4:54 AM 71.1 °F - 66.0 °F 84% 30.10 in 10.0 mi Calm Calm - N/A   Mostly Cloudy
5:54 AM 70.0 °F - 66.0 °F 87% 30.09 in 10.0 mi Calm Calm - N/A   Scattered Clouds
6:54 AM 70.0 °F - 66.0 °F 87% 30.10 in 10.0 mi South 3.5 mph - N/A   Mostly Cloudy
7:23 AM 70.0 °F - 66.0 °F 87% 30.14 in 10.0 mi SE 4.6 mph - N/A   Mostly Cloudy
7:54 AM 70.0 °F - 66.9 °F 90% 30.12 in 10.0 mi SSE 3.5 mph - N/A   Mostly Cloudy
8:47 AM 71.1 °F - 66.9 °F 87% 30.18 in 10.0 mi SE 3.5 mph - N/A   Mostly Cloudy
8:54 AM 72.0 °F - 68.0 °F 87% 30.15 in 10.0 mi SSE 5.8 mph - N/A   Mostly Cloudy
9:10 AM 72.0 °F - 68.0 °F 87% 30.18 in 10.0 mi SE 4.6 mph - N/A   Scattered Clouds
9:54 AM 75.9 °F - 68.0 °F 76% 30.15 in 10.0 mi Calm Calm - N/A   Scattered Clouds
10:54 AM 78.1 °F - 68.0 °F 71% 30.15 in 10.0 mi SE 4.6 mph - N/A   Scattered Clouds
11:54 AM 82.0 °F 84.9 °F 68.0 °F 62% 30.14 in 10.0 mi South 5.8 mph - N/A   Scattered Clouds
12:54 PM 86.0 °F 90.1 °F 69.1 °F 57% 30.11 in 10.0 mi Variable 3.5 mph - N/A   Partly Cloudy
1:48 PM 87.8 °F 92.6 °F 69.8 °F 55% 30.15 in 10.0 mi East 10.4 mph - N/A Thunderstorm Thunderstorm
1:54 PM 87.1 °F 92.0 °F 70.0 °F 57% 30.10 in 10.0 mi East 8.1 mph - 0.00 in Rain , Thunderstorm Light Thunderstorms and Rain
2:54 PM 73.0 °F - 66.9 °F 81% 30.12 in 10.0 mi NE 6.9 mph - 0.51 in Rain , Thunderstorm Light Thunderstorms and Rain
3:18 PM 77.0 °F - 68.0 °F 74% 30.17 in 10.0 mi North 4.6 mph - 0.00 in   Mostly Cloudy
3:54 PM 79.0 °F - 68.0 °F 69% 30.13 in 10.0 mi WNW 5.8 mph - 0.00 in   Mostly Cloudy
4:54 PM 78.1 °F - 69.1 °F 74% 30.11 in 10.0 mi NNE 5.8 mph - N/A   Mostly Cloudy
5:54 PM 79.0 °F - 69.1 °F 72% 30.13 in 10.0 mi ESE 4.6 mph - N/A   Mostly Cloudy
7:54 PM 75.0 °F - 70.0 °F 84% 30.12 in 10.0 mi Calm Calm - N/A   Partly Cloudy
8:54 PM 75.0 °F - 69.1 °F 82% 30.14 in 10.0 mi ENE 3.5 mph - N/A   Clear
9:54 PM 73.0 °F - 69.1 °F 87% 30.15 in 10.0 mi Calm Calm - N/A   Clear
10:54 PM 72.0 °F - 69.1 °F 91% 30.17 in 10.0 mi North 3.5 mph - N/A   Clear
11:54 PM 72.0 °F - 69.1 °F 91% 30.17 in 10.0 mi Calm Calm - N/A   Clear